La Paz, Mexico

6:06 PM MST on March 26, 2017 (GMT -0700)
Gen Manuel Marquez De Leon

Weather History for MMLP - December, 2012

Change the Weather History Date:

Tuesday, December 25, 2012

  Actual Average Record
Temperature  
Mean Temperature 66 °F -  
Max Temperature 79 °F 75 °F 84 °F (2005)
Min Temperature 52 °F 52 °F 44 °F (2007)
Growing Degree Days 16 (Base 50)    
Moisture  
Dew Point 51 °F    
Average Humidity 56    
Maximum Humidity 81    
Minimum Humidity 29    
Precipitation  
Precipitation 0.00 in - - ()
Sea Level Pressure  
Sea Level Pressure 29.98 in    
Wind  
Wind Speed 7 mph ()    
Max Wind Speed 17 mph    
Max Gust Speed -    
Visibility 9.6 miles    
Events      
Averages and records for this station are not official NWS values.
T = Trace of Precipitation, MM = Missing Value Source: Averaged Metar Reports

Daily Weather History Graph

Daily Weather History Graph

Search for Another Location

Airport or City:

Trip Planner

Search our weather history database for the weather conditions in past years. The results will help you decide how hot, cold, wet, or windy it might be!

Date:

Astronomy

Dec. 25, 2012 Rise Set
Actual Time 7:02 AM MST 5:41 PM MST
Civil Twilight 6:37 AM MST 6:06 PM MST
Nautical Twilight 6:09 AM MST 6:34 PM MST
Astronomical Twilight 5:41 AM MST 7:02 PM MST
Moon 3:48 PM MST (12/25) 4:42 AM MST (12/25)
Length of Visible Light 11h 28m
Length of Day
10h 39m
Waxing Gibbous, 94% of the Moon is Illuminated
Dec 25
Waxing Gibbous
Dec 28
Full
Jan 4
Last Quarter
Jan 11
New
Jan 18
First Quarter

Hourly Weather History & Observations

Time (MST) Temp. Windchill Dew Point Humidity Pressure Visibility Wind Dir Wind Speed Gust Speed Precip Events Conditions
6:57 AM 46.4 °F 44.3 °F 39.2 °F 76% 29.99 in 10.0 mi South 4.6 mph - N/A   Clear
7:45 AM 46.4 °F - 41.0 °F 81% 30.06 in 10.0 mi Calm Calm - N/A   Partly Cloudy
8:45 AM 60.8 °F - 51.8 °F 72% 30.03 in 10.0 mi NNW 4.6 mph - N/A   Partly Cloudy
9:46 AM 71.6 °F - 55.4 °F 57% 30.03 in 10.0 mi NNE 16.1 mph - N/A   Partly Cloudy
10:45 AM 73.4 °F - 53.6 °F 50% 30.09 in 10.0 mi North 16.1 mph - N/A   Partly Cloudy
10:50 AM 76 °F - 62 °F 52% 30.02 in 2 mi North 8.9 mph - -   Clear
11:50 AM 75.2 °F - 51.8 °F 44% 30.01 in 10.0 mi NNE 17.3 mph - N/A   Clear
12:44 PM 75.2 °F - 50.0 °F 41% 29.98 in 10.0 mi North 13.8 mph - N/A   Partly Cloudy
2:44 PM 75.2 °F - 42.8 °F 31% 29.94 in 10.0 mi North 15.0 mph - N/A   Partly Cloudy
3:44 PM 75.2 °F - 42.8 °F 31% 29.92 in 10.0 mi North 13.8 mph - N/A   Partly Cloudy
4:45 PM 75.2 °F - 41.0 °F 29% 29.96 in 10.0 mi North 13.8 mph - N/A   Partly Cloudy
4:50 PM 75 °F - 56 °F 42% 29.89 in 19 mi NNE 6.7 mph - -   Clear
5:41 PM 69.8 °F - 48.2 °F 46% 29.91 in 10.0 mi NNE 6.9 mph - N/A   Scattered Clouds
6:40 PM 68.0 °F - 53.6 °F 60% 29.93 in 10.0 mi NE 8.1 mph - N/A   Scattered Clouds
7:45 PM 68 °F - 62 °F 75% 29.91 in 2 mi NE 4.5 mph - -   Clear
7:45 PM 66.2 °F - 53.6 °F 64% 29.99 in 10.0 mi NE 8.1 mph - N/A   Scattered Clouds
8:46 PM 64.4 °F - 53.6 °F 68% 29.95 in 10.0 mi NE 4.6 mph - N/A   Scattered Clouds
9:48 PM 60.8 °F - 51.8 °F 72% 29.95 in 10.0 mi NE 3.5 mph - N/A   Partly Cloudy
10:40 PM 60.8 °F - 51.8 °F 72% 30.00 in 10.0 mi NNE 3.5 mph - N/A   Scattered Clouds